Date,TemperatureHighF,TemperatureAvgF,TemperatureLowF,DewpointHighF,DewpointAvgF,DewpointLowF,HumidityHigh,HumidityAvg,HumidityLow,PressureMaxIn,PressureMinIn,WindSpeedMaxMPH,WindSpeedAvgMPH,GustSpeedMaxMPH,PrecipitationSumIn
2013-3-1,27.6,20.1,10.2,18.7,14.6,7.6,89,79,67,30.37,30.24,6,1,11,0.00
2013-3-2,26.9,15.1,-0.7,17.1,9.8,-4.3,91,80,65,30.36,30.14,11,3,13,0.00
2013-3-3,30.9,24.8,15.8,22.0,17.1,11.5,90,73,57,30.14,29.91,24,9,28,0.00
2013-3-4,24.5,23.0,21.8,22.5,21.1,19.8,93,92,90,29.98,29.85,27,10,27,0.00
2013-3-5,30.7,24.6,19.4,27.5,22.6,17.2,94,92,88,30.33,29.93,11,2,12,0.10
2013-3-6,25.3,17.9,9.4,23.2,15.1,6.8,94,88,83,30.43,30.33,6,1,7,0.01
2013-3-7,27.2,15.4,3.8,20.5,11.3,0.9,100,84,73,30.37,30.23,22,6,24,0.00
2013-3-8,33.0,25.2,15.5,30.4,21.2,13.6,96,85,70,30.28,30.03,13,6,16,0.01
2013-3-9,35.1,33.5,32.4,34.3,32.5,30.4,97,96,91,30.03,29.65,12,5,16,1.04
2013-3-10,32.6,27.9,25.3,31.1,24.4,20.9,94,87,82,30.01,29.80,16,5,19,0.00
2013-3-11,29.0,23.4,18.0,20.9,17.8,14.3,87,79,65,29.94,29.78,11,3,14,0.00
2013-3-12,27.0,21.5,14.9,22.1,16.9,11.5,90,82,72,30.25,29.83,20,5,22,0.00
2013-3-13,30.7,18.5,5.6,20.1,13.1,2.8,91,80,62,30.40,30.19,13,3,15,0.00
2013-3-14,40.2,29.2,21.1,29.7,24.5,19.1,93,83,65,30.18,29.98,14,5,16,0.01
2013-3-15,33.0,29.7,23.6,30.7,27.8,21.6,100,93,90,29.99,29.80,14,2,16,0.08
2013-3-16,23.4,17.7,4.1,21.5,11.9,-0.5,98,78,61,30.28,29.92,9,3,15,0.00
2013-3-17,25.7,14.2,1.7,22.8,8.1,-3.0,92,76,68,30.28,29.72,23,9,30,0.00
2013-3-18,31.2,18.4,7.7,30.2,15.9,4.4,96,90,86,29.90,29.56,30,10,33,0.00
2013-3-19,17.5,9.0,2.0,7.2,2.9,-2.0,87,76,57,30.29,29.90,18,6,19,0.00
2013-3-20,17.3,8.7,0.6,7.0,1.6,-3.8,81,73,59,30.33,30.17,15,5,18,0.00
2013-3-21,29.1,10.7,-2.7,13.2,2.7,-6.3,85,71,50,30.18,30.07,9,1,11,0.00
2013-3-22,35.0,20.2,2.1,18.6,11.7,-1.4,89,71,45,30.12,30.06,11,1,13,0.00
2013-3-23,35.0,20.0,10.0,22.3,13.5,6.8,92,77,56,30.18,30.09,7,1,9,0.00
2013-3-29,42.6,41.6,40.9,38.7,38.0,37.3,88,87,86,29.99,29.94,12,7,15,0.00
2013-3-30,43.6,38.9,31.5,38.9,35.7,29.7,95,88,78,29.93,29.83,17,4,20,0.08
2013-3-31,33.8,29.9,19.5,31.6,23.9,13.7,96,79,58,30.14,29.79,16,6,19,0.00